sat.trackr.live / text

‹ back to catalog

STARLINK-30839

NORAD 58209 · 2023-170D

PAYLOAD ACTIVE UNKNOWN

§ Identity

Operator
Country
US
Launch date
2023-11-03
Launch site
AFETR
Launch vehicle
Mass (kg)
RCS (m²)

Purposes: comms

External: N2YO · Heavens-Above · Gunter

§ Orbital elements

Epoch: 2026-09-20T03:39:15.698592Z

Period
94.27 min
Inclination
43.0033°
Eccentricity
0.0001162
Mean motion
15.27575104 rev/d
Perigee alt
482.3 km
Apogee alt
483.9 km
Semi-major
6,861.2 km
B*
4.6066e-6
RAAN
175.6980°
Arg perigee
270.9009°
Mean anomaly
89.1710°
Rev number
16,004

§ Raw data

STARLINK-308391 58209U 23170D   26263.15226503 -.00000135  00000+0  46066-5 0  99962 58209  43.0033 175.6980 0001162 270.9009  89.1710 15.27575104160046

JSON: /api/v1/satellites/58209 · /tle

For live sub-satellite position, see the globe view (requires WebGL).

§ Visibility from observer

Set your observer location to see the next 7 days of passes ≥ 10°. The values pass through the URL so the page stays shareable.

No JS? Fill the form by hand. The geolocation button needs JavaScript.